Nederland, TX

11:44 PM CDT on September 29, 2016 (GMT -0500)
Southeast Texas Regional

Weather History for KBPT - December, 2012

Change the Weather History Date:

Sunday, December 2, 2012

  Actual Average Record
Temperature  
Mean Temperature 72 °F 57 °F  
Max Temperature 81 °F 67 °F 84 °F (1978)
Min Temperature 63 °F 47 °F 29 °F (1974)
Degree Days  
Heating Degree Days 0 9  
Month to date heating degree days 0 18  
Since 1 July heating degree days 193 213  
Cooling Degree Days 7 1  
Month to date cooling degree days 13 2  
Year to date cooling degree days 3148 2857  
Growing Degree Days 22 (Base 50)    
Moisture  
Dew Point 65 °F    
Average Humidity 79    
Maximum Humidity 100    
Minimum Humidity 58    
Precipitation  
Precipitation 0.00 in 0.16 in 2.71 in (1914)
Month to date precipitation 0.00 0.32  
Year to date precipitation 57.36 55.50  
Snow  
Snow 0.00 in 0.00 in 0.00 in ()
Month to date snowfall 0.0 0.0  
Since 1 July snowfall 0.0 0.0  
Snow Depth 0.00 in    
Sea Level Pressure  
Sea Level Pressure 30.15 in    
Wind  
Wind Speed 8 mph (SE)    
Max Wind Speed 18 mph    
Max Gust Speed 23 mph    
Visibility 9 miles    
Events      
T = Trace of Precipitation, MM = Missing Value Source: NWS Daily Summary

Daily Weather History Graph

Daily Weather History Graph

Search for Another Location

Airport or City:

Trip Planner

Search our weather history database for the weather conditions in past years. The results will help you decide how hot, cold, wet, or windy it might be!

Date:

Astronomy

Dec. 02, 2012 Rise Set
Actual Time 6:55 AM CST 5:15 PM CST
Civil Twilight 6:29 AM CST 5:41 PM CST
Nautical Twilight 5:59 AM CST 6:11 PM CST
Astronomical Twilight 5:30 AM CST 6:40 PM CST
Moon 8:56 PM CST (12/2) 9:51 AM CST (12/2)
Length of Visible Light 11h 12m
Length of Day
10h 20m
Waning Gibbous, 85% of the Moon is Illuminated
Dec 2
Waning Gibbous
Dec 6
Last Quarter
Dec 13
New
Dec 19
First Quarter
Dec 28
Full

Hourly Weather History & Observations

Time (CST) Temp. Heat Index Dew Point Humidity Pressure Visibility Wind Dir Wind Speed Gust Speed Precip Events Conditions
12:32 AM 69.8 °F - 66.2 °F 88% 30.14 in 10.0 mi SSE 9.2 mph - N/A   Mostly Cloudy
12:53 AM 69.1 °F - 66.9 °F 93% 30.14 in 10.0 mi SSE 9.2 mph - N/A   Mostly Cloudy
1:11 AM 68.0 °F - 66.2 °F 94% 30.14 in 10.0 mi SSE 10.4 mph - N/A   Mostly Cloudy
1:51 AM 68.0 °F - 66.2 °F 94% 30.14 in 10.0 mi SSE 5.8 mph - N/A   Mostly Cloudy
1:53 AM 68.0 °F - 66.0 °F 93% 30.14 in 10.0 mi SSE 6.9 mph - N/A   Mostly Cloudy
2:53 AM 68.0 °F - 66.0 °F 93% 30.14 in 10.0 mi SSE 5.8 mph - N/A   Overcast
3:45 AM 66.2 °F - 64.4 °F 94% 30.14 in 10.0 mi East 4.6 mph - N/A   Scattered Clouds
3:53 AM 66.0 °F - 64.9 °F 96% 30.14 in 7.0 mi East 3.5 mph - N/A   Mostly Cloudy
4:53 AM 64.0 °F - 64.0 °F 100% 30.15 in 7.0 mi East 5.8 mph - N/A   Mostly Cloudy
5:14 AM 64.4 °F - 64.4 °F 100% 30.15 in 6.0 mi ESE 3.5 mph - N/A   Mostly Cloudy
5:53 AM 64.9 °F - 64.0 °F 97% 30.16 in 6.0 mi East 4.6 mph - N/A   Mostly Cloudy
6:00 AM 64.4 °F - 64.4 °F 100% 30.16 in 7.0 mi East 4.6 mph - N/A   Mostly Cloudy
6:53 AM 64.0 °F - 64.0 °F 100% 30.17 in 7.0 mi East 3.5 mph - N/A   Partly Cloudy
7:53 AM 66.9 °F - 66.0 °F 97% 30.19 in 3.0 mi ESE 8.1 mph - N/A   Mostly Cloudy
8:06 AM 68.0 °F - 66.2 °F 94% 30.19 in 2.5 mi ESE 8.1 mph - N/A   Scattered Clouds
8:28 AM 69.8 °F - 66.2 °F 88% 30.20 in 3.0 mi ESE 5.8 mph - N/A   Scattered Clouds
8:53 AM 72.0 °F - 68.0 °F 87% 30.20 in 5.0 mi ESE 5.8 mph - N/A   Overcast
9:53 AM 73.9 °F - 66.9 °F 79% 30.21 in 8.0 mi SE 8.1 mph - N/A   Mostly Cloudy
10:53 AM 80.1 °F 82.1 °F 66.0 °F 62% 30.20 in 10.0 mi SSE 13.8 mph - N/A   Scattered Clouds
11:17 AM 78.8 °F - 66.2 °F 65% 30.19 in 10.0 mi SSE 10.4 mph - 0.01 in   Mostly Cloudy
11:51 AM 80.6 °F 82.7 °F 66.2 °F 61% 30.18 in 10.0 mi SSE 12.7 mph 23.0 mph 0.01 in   Mostly Cloudy
11:53 AM 80.1 °F 82.1 °F 66.0 °F 62% 30.17 in 10.0 mi SSE 15.0 mph - 0.01 in   Mostly Cloudy
12:07 PM 80.6 °F 82.3 °F 64.4 °F 58% 30.17 in 10.0 mi South 13.8 mph - N/A   Scattered Clouds
12:53 PM 79.0 °F - 64.0 °F 60% 30.15 in 10.0 mi South 11.5 mph - N/A   Partly Cloudy
1:53 PM 80.1 °F 81.7 °F 64.0 °F 58% 30.13 in 10.0 mi South 15.0 mph - N/A   Mostly Cloudy
2:53 PM 78.1 °F - 64.0 °F 62% 30.12 in 10.0 mi SSE 12.7 mph - N/A   Mostly Cloudy
3:53 PM 75.9 °F - 64.9 °F 69% 30.12 in 10.0 mi SSE 13.8 mph - N/A   Mostly Cloudy
4:00 PM 75.2 °F - 64.4 °F 69% 30.12 in 10.0 mi SSE 12.7 mph - N/A   Scattered Clouds
4:53 PM 73.0 °F - 66.0 °F 79% 30.13 in 10.0 mi SSE 10.4 mph - N/A   Clear
5:53 PM 68.0 °F - 64.9 °F 90% 30.14 in 10.0 mi ESE 5.8 mph - N/A   Clear
6:50 PM 68.0 °F - 66.2 °F 94% 30.14 in 10.0 mi ESE 8.1 mph - N/A   Mostly Cloudy
6:53 PM 68.0 °F - 66.0 °F 93% 30.14 in 10.0 mi ESE 6.9 mph - N/A   Overcast
7:03 PM 68.0 °F - 66.2 °F 94% 30.14 in 10.0 mi ESE 6.9 mph - N/A   Mostly Cloudy
7:53 PM 69.1 °F - 66.0 °F 90% 30.14 in 10.0 mi ESE 9.2 mph - N/A   Overcast
8:53 PM 69.1 °F - 66.0 °F 90% 30.14 in 10.0 mi SE 8.1 mph - N/A   Overcast
9:53 PM 69.1 °F - 66.0 °F 90% 30.14 in 10.0 mi SSE 9.2 mph - N/A   Overcast
10:01 PM 69.8 °F - 66.2 °F 88% 30.14 in 10.0 mi SSE 9.2 mph - N/A   Overcast
10:53 PM 68.0 °F - 64.0 °F 87% 30.13 in 10.0 mi South 5.8 mph - N/A   Overcast
11:53 PM 66.9 °F - 64.0 °F 90% 30.13 in 10.0 mi SE 4.6 mph - N/A   Overcast